Wind_Speed
25 24 24 25 26 27 26 25 26 27 25 25 27 30 31 32 34 35 35 34 33 32 30 29 31 31 30 29 30 30 30 29 28 26 24 22 21 21 20 20 21 21 20 20 19 19 19 19 19 19 19 19 19 19 18 17 16 15 14 13 13 13 13 13 12 11 11 11 11 10 10 11 11 12 12 12 12 12 12 12 12 12 11 11 11
25 24 23 24 25 25 24 25 25 24 23 26 29 31 31 33 35 36 35 34 33 32 30 30 31 31 30 30 30 30 29 28 26 25 23 22 21 20 21 22 22 22 21 20 19 19 19 19 19 19 19 19 18 18 17 16 14 13 13 13 13 13 13 12 12 11 11 10 10 10 10 10 10 10 9 10 9 10 10 10 10 10 10 10 11
26 24 23 24 25 25 24 24 23 23 25 28 31 31 31 33 36 36 36 34 33 32 31 31 31 31 31 30 29 27 25 25 24 23 22 21 20 19 20 21 21 21 21 20 19 18 18 18 18 18 18 18 17 16 15 14 13 13 13 13 14 13 12 12 11 11 10 9 8 9 9 8 8 7 7 7 8 8 8 9 9 10 10 11 12
26 24 23 24 25 25 24 23 22 24 27 30 31 31 32 34 37 36 36 34 33 32 31 31 31 32 31 30 28 23 21 21 21 21 20 18 17 17 17 18 19 20 20 20 19 18 18 17 17 17 17 17 16 15 14 13 12 12 13 14 13 12 12 12 12 10 8 8 7 8 7 7 7 7 7 7 7 7 8 9 10 10 12 13 14
26 24 23 24 25 25 24 23 23 25 28 30 31 31 33 35 37 36 36 34 33 32 31 31 31 32 31 29 25 19 17 18 19 18 17 15 15 17 19 21 22 22 21 20 20 19 18 17 17 17 17 16 14 13 12 12 12 13 13 13 13 13 13 12 11 8 7 7 7 7 8 8 9 8 8 8 8 9 10 10 11 12 13 14 18
28 26 25 25 25 25 24 23 24 27 29 30 31 32 34 36 37 37 36 34 33 33 32 31 31 31 30 27 23 18 16 15 17 16 15 15 17 20 23 26 27 26 25 23 22 21 19 19 18 18 17 15 13 12 11 11 12 13 13 13 13 13 13 11 9 7 7 7 7 9 10 10 9 9 9 9 9 10 11 12 12 12 15 20 25
30 28 27 26 26 26 23 23 27 29 29 30 31 33 35 37 37 37 36 34 33 33 32 31 31 30 28 25 22 19 16 12 14 15 14 14 18 22 26 29 29 29 29 27 26 24 23 22 21 20 19 16 13 12 11 11 12 13 13 12 13 13 12 10 8 8 8 9 10 11 11 11 11 11 11 11 12 12 13 13 13 18 25 29 30
31 30 28 26 26 25 23 25 29 29 28 30 33 35 36 37 37 37 36 34 33 33 32 30 30 28 26 24 22 20 15 10 12 14 13 13 18 23 29 32 31 30 29 29 29 29 27 25 23 22 21 18 14 12 11 12 13 13 12 12 12 12 11 10 9 10 11 12 12 12 13 14 14 14 14 15 15 16 16 17 22 30 34 33 30
32 31 29 27 26 24 24 27 28 27 27 30 34 36 37 37 37 36 35 33 33 33 32 30 29 27 24 22 22 20 15 9 10 13 13 13 18 24 31 34 32 32 30 28 29 31 30 28 26 24 22 20 17 13 12 12 13 13 11 11 12 12 11 11 11 12 14 14 14 15 16 17 17 17 17 19 20 22 24 27 33 36 34 32 31
33 31 29 28 27 25 26 28 27 27 28 31 34 36 38 38 36 36 35 33 33 32 32 30 28 25 22 21 21 19 15 11 10 13 15 17 22 28 32 34 33 34 32 30 30 30 30 29 28 26 24 22 20 16 13 12 12 12 11 11 11 12 12 12 12 13 14 15 16 17 18 19 19 20 23 26 28 30 32 34 36 35 33 33 32
33 32 30 29 28 28 28 29 27 28 30 31 34 36 38 38 36 35 34 33 33 33 32 29 27 24 21 20 20 19 16 13 13 15 18 21 26 29 33 35 35 35 34 32 31 30 30 30 29 27 25 23 21 19 16 12 12 13 13 12 12 13 13 13 13 14 15 16 18 20 21 23 24 27 29 31 32 32 33 35 36 35 35 35 34
34 33 32 31 30 29 29 30 29 30 30 32 34 36 38 37 35 34 34 34 33 33 32 29 25 22 20 19 19 18 17 16 17 19 22 24 27 29 32 35 36 35 34 33 32 31 30 30 29 28 26 24 22 20 17 14 13 13 14 15 15 16 16 17 18 19 20 21 23 25 27 28 29 31 32 32 32 33 34 36 37 37 38 38 37
36 35 34 33 32 31 31 31 29 29 31 33 34 36 38 36 34 34 34 34 34 33 31 28 23 21 19 19 19 18 18 18 19 21 23 25 27 30 33 35 35 35 34 33 32 31 31 30 29 28 27 25 22 20 18 16 14 13 14 15 17 18 19 20 21 22 24 25 27 29 30 31 31 32 33 33 34 34 36 37 38 39 39 40 39
37 36 35 35 34 33 32 31 29 30 34 34 33 35 37 35 33 34 34 34 34 30 28 25 21 20 19 19 19 19 19 19 20 21 23 25 28 31 33 35 35 35 34 33 32 31 31 30 29 28 28 26 24 22 19 17 15 14 13 14 15 16 17 19 21 23 24 26 28 30 32 32 32 32 33 34 35 36 38 39 39 40 41 41 41
38 37 35 34 34 33 32 31 30 32 34 33 33 35 36 34 33 34 34 35 33 26 24 24 21 19 20 21 21 21 21 21 21 22 24 26 28 30 33 35 35 35 34 33 32 31 31 30 29 28 28 28 26 24 21 19 18 16 15 14 14 15 16 17 19 22 24 26 28 31 32 32 31 32 33 35 36 37 39 40 41 42 42 43 43
38 38 36 34 33 32 32 32 31 32 32 32 34 34 36 35 33 34 35 35 30 23 22 22 20 19 21 23 24 23 23 22 22 23 24 25 28 30 33 35 35 35 34 33 32 32 31 30 30 29 29 29 27 26 24 22 21 19 18 16 16 16 17 18 20 22 24 26 28 31 33 32 32 33 34 36 37 38 40 42 42 43 44 45 45
37 37 37 36 35 34 32 31 30 31 31 33 35 35 36 36 34 34 35 35 28 22 22 22 21 20 22 24 25 24 24 23 23 24 25 26 28 31 34 35 35 35 34 33 33 32 32 31 30 30 30 29 29 28 26 24 22 22 20 19 18 18 19 21 22 24 25 27 29 31 32 33 33 33 35 37 38 39 40 42 43 44 45 45 46
36 37 37 38 38 36 34 33 31 32 33 35 37 37 37 37 35 34 35 35 29 24 25 25 23 23 23 25 26 25 23 22 23 24 25 27 30 33 35 36 36 35 34 33 33 33 32 32 31 30 30 30 30 29 27 25 24 23 22 20 19 20 21 23 25 26 27 28 30 31 33 34 35 35 36 38 39 40 41 42 43 45 45 46 47
38 38 38 38 38 38 37 35 34 34 36 37 39 39 39 38 36 34 35 36 32 28 28 27 25 24 25 25 25 24 22 22 23 24 26 29 32 35 36 37 36 35 34 33 34 34 33 33 32 31 31 31 30 30 29 27 25 24 23 22 21 22 23 25 27 27 28 30 31 33 35 36 36 36 37 39 40 41 42 43 44 45 46 47 48
41 40 40 40 40 39 38 37 36 37 39 40 41 42 40 38 37 35 35 36 34 31 30 28 25 24 23 22 22 21 20 21 23 25 29 32 34 36 37 37 36 35 34 34 34 34 34 33 33 33 32 31 30 30 29 28 26 26 25 23 23 24 26 27 29 29 31 33 33 35 37 38 38 37 38 40 41 42 43 44 44 45 47 48 50
43 42 41 41 42 41 40 39 39 40 41 42 43 43 42 39 38 36 35 35 34 31 29 28 25 23 21 21 20 20 21 24 26 29 32 33 35 36 36 36 36 36 35 34 34 34 34 34 34 34 34 32 31 31 30 29 28 28 27 25 24 26 27 29 31 31 33 35 35 37 39 40 40 40 41 42 42 43 44 44 45 46 48 50 51
44 44 43 42 43 43 43 42 42 42 43 44 44 43 42 40 38 36 34 34 33 30 28 27 26 23 21 21 22 24 28 29 31 32 33 34 36 36 34 36 37 36 35 35 34 34 35 34 34 35 34 34 34 32 31 30 29 29 28 26 26 27 29 31 32 33 36 36 37 39 40 41 42 42 43 44 44 43 45 46 46 48 50 51 52
44 44 43 43 44 44 44 44 43 43 44 45 44 43 42 40 38 36 34 32 32 29 27 26 25 24 23 24 28 31 33 34 35 34 35 36 35 34 34 38 38 36 36 35 35 36 34 33 34 34 35 36 35 34 33 32 31 31 29 28 28 29 31 32 34 36 37 38 39 41 42 42 42 43 44 45 45 45 46 47 48 50 51 52 53
45 45 44 44 44 44 45 44 43 44 45 44 43 43 42 40 38 35 33 32 31 29 27 27 26 26 27 31 34 36 37 38 37 36 37 36 34 34 38 39 37 37 36 34 36 36 33 33 35 35 36 37 36 36 35 34 33 33 31 29 30 32 32 33 38 39 39 40 40 41 43 44 43 43 44 45 46 46 47 49 50 51 53 54 55
48 47 47 46 45 45 46 45 44 45 45 44 42 43 41 39 37 34 32 32 32 31 29 28 28 30 34 37 38 38 38 38 38 38 38 37 37 38 41 41 38 37 35 35 36 35 34 35 37 37 38 39 38 38 37 36 35 34 32 30 32 34 35 36 41 41 40 42 41 41 43 44 44 44 44 45 46 47 49 50 52 54 55 57 58
51 50 49 48 48 47 47 46 46 45 44 43 43 43 40 37 35 32 32 33 33 31 29 29 32 37 39 39 39 38 38 39 39 38 38 39 41 41 42 41 39 38 35 35 35 35 36 36 38 39 40 41 40 40 39 38 36 34 33 33 34 37 39 40 42 43 42 43 43 43 43 44 45 44 45 45 46 48 50 53 55 57 59 60 61
53 52 51 50 49 48 47 46 46 44 43 43 43 41 38 36 34 32 32 34 33 30 31 34 38 39 39 38 38 38 38 40 39 38 39 40 40 41 41 38 37 36 34 33 31 32 36 37 39 41 41 42 42 41 40 39 37 35 35 36 38 40 43 44 45 45 44 44 44 44 44 45 45 45 45 46 48 51 54 57 59 60 61 62 63
55 53 52 51 50 49 47 46 45 43 43 43 41 39 37 35 34 33 33 34 34 35 37 39 40 38 38 38 37 38 40 42 41 41 41 40 39 38 35 31 30 31 30 31 30 32 38 40 41 42 42 42 43 42 41 40 38 38 39 40 42 44 46 47 47 46 45 44 44 45 45 45 45 45 45 47 51 55 57 59 61 62 62 63 63
56 55 54 53 51 49 48 46 44 43 43 42 40 38 36 35 35 34 34 36 39 40 40 39 38 38 38 37 38 40 42 43 42 41 41 40 39 35 30 27 27 30 31 32 33 36 40 42 42 43 43 43 43 43 43 42 41 41 43 44 45 46 49 49 48 47 46 46 45 45 45 45 45 45 48 51 55 57 58 60 61 62 62 62 62
58 56 55 54 52 50 48 46 44 43 42 40 39 38 36 35 35 36 37 40 42 40 38 38 38 39 38 37 39 42 43 43 42 40 40 40 38 34 30 28 29 31 32 34 35 37 40 42 44 44 43 43 43 43 43 43 44 44 46 48 48 49 51 51 48 47 47 47 47 46 45 45 45 47 52 54 56 57 58 60 61 61 62 62 62
58 56 54 53 52 50 48 46 44 43 41 39 38 37 36 35 35 37 38 40 40 38 37 38 39 39 39 39 41 42 43 42 40 40 39 37 36 32 28 28 30 30 34 38 39 39 40 42 43 43 42 42 42 43 43 44 45 47 49 50 51 52 53 51 47 47 48 47 47 46 45 45 47 50 53 55 57 58 59 60 60 61 62 63 63
58 55 53 52 50 49 47 45 43 42 41 38 37 37 36 35 34 36 37 38 37 37 38 39 40 41 41 42 43 44 44 43 41 39 36 35 34 31 29 32 32 34 40 42 39 38 39 40 42 42 41 41 42 43 44 45 46 48 50 51 52 53 52 50 47 47 47 47 46 45 46 47 50 53 55 57 59 60 60 60 60 61 62 63 64
57 54 52 51 49 48 46 43 42 41 40 38 37 36 36 35 35 35 36 37 37 37 39 40 41 42 43 45 45 46 45 42 40 37 35 36 35 33 34 35 35 40 45 40 36 37 39 41 42 42 42 42 43 44 45 46 47 48 50 52 53 53 51 49 48 47 46 46 45 46 48 50 53 55 57 58 59 60 60 61 61 62 63 64 65
55 53 51 49 48 46 43 41 42 41 39 37 36 36 36 36 35 35 36 37 37 39 40 41 42 43 45 46 46 45 44 42 41 39 37 37 34 31 33 36 37 42 42 36 35 39 42 44 45 44 44 44 45 46 47 47 48 50 51 53 53 52 50 48 48 46 46 46 47 48 50 52 54 56 57 58 59 61 61 62 63 64 65 66 67
54 52 49 48 46 44 42 41 41 41 39 37 36 36 36 36 36 36 37 38 38 40 41 41 42 43 45 45 45 44 43 43 42 39 36 33 28 27 31 36 39 42 42 38 40 43 48 50 48 46 45 45 47 47 48 49 50 51 52 53 52 50 48 48 47 46 46 47 49 50 52 53 54 56 57 59 61 61 62 64 65 66 67 68 68
52 51 48 46 44 42 41 41 41 41 39 37 36 35 35 36 37 37 38 39 39 40 41 42 43 44 45 45 46 45 43 41 39 35 31 27 24 27 32 37 41 46 47 45 47 49 53 55 51 46 46 46 47 48 49 51 52 52 52 51 50 48 48 47 47 46 47 49 51 52 53 54 55 57 59 60 62 63 64 65 66 68 68 69 70
51 49 46 44 42 41 41 41 41 40 38 36 36 36 36 37 38 38 39 40 40 41 42 43 45 46 44 44 44 41 37 34 32 28 28 26 24 29 36 43 49 53 52 51 52 54 56 57 50 46 47 48 49 50 51 52 51 50 50 49 48 48 48 47 47 48 49 51 53 54 55 56 57 59 61 62 63 64 66 67 68 69 69 70 70
50 48 44 43 41 41 41 41 41 39 37 36 36 37 38 38 39 40 40 41 42 43 44 44 46 44 42 41 39 36 33 29 26 27 30 28 28 36 46 52 56 56 54 52 53 55 56 53 48 47 48 49 51 51 49 49 49 49 49 48 48 48 48 48 48 50 52 53 54 55 56 58 60 61 63 63 64 66 67 68 69 70 70 71 71
48 46 43 42 41 41 41 41 41 39 37 36 36 38 39 38 39 40 41 41 43 44 45 44 44 42 41 39 35 34 30 22 24 30 31 33 38 48 55 55 53 51 50 50 51 52 51 51 51 51 50 50 49 48 47 47 48 48 48 48 48 49 49 49 51 52 54 54 55 56 59 60 62 63 64 65 66 67 68 69 70 70 71 71 71
47 44 43 42 42 42 42 41 41 40 39 37 36 39 40 40 40 41 41 41 43 44 43 42 41 40 40 38 35 35 28 23 30 34 36 44 51 56 57 52 49 47 48 50 50 51 52 54 54 51 49 47 46 45 46 47 47 48 48 48 49 50 51 52 54 55 55 55 57 59 61 62 63 64 66 66 67 68 69 70 70 70 70 70 70
46 43 43 43 43 42 42 42 41 41 40 39 39 41 41 41 41 41 40 40 41 41 42 41 40 41 42 42 41 41 38 39 43 44 48 54 56 57 55 52 50 50 50 51 52 55 55 54 50 46 46 44 44 45 46 47 48 48 48 49 50 51 53 55 55 55 56 57 59 62 63 64 65 66 67 68 69 69 70 70 70 70 70 70 70
46 44 44 44 44 43 43 42 42 43 43 42 41 41 41 41 41 41 40 41 40 39 39 39 39 41 43 43 44 45 46 48 50 50 52 54 54 57 55 52 52 51 51 53 56 56 53 49 46 44 44 44 44 45 46 48 49 49 49 49 50 53 55 55 55 56 57 60 62 64 65 66 67 68 68 69 69 70 70 70 71 71 71 71 70
46 45 45 45 44 44 43 43 43 45 45 43 42 42 42 41 40 40 40 41 41 39 39 41 43 45 46 45 45 45 44 45 47 49 51 54 57 59 55 52 52 51 53 56 56 52 47 46 45 44 43 44 45 45 47 48 49 50 50 50 52 54 55 54 55 58 60 61 63 65 66 67 68 68 69 69 69 70 70 70 71 71 71 71 70
47 46 46 45 44 44 44 43 45 46 45 43 43 42 40 40 39 39 39 40 41 41 42 44 46 48 49 48 47 46 45 46 47 49 54 58 59 56 53 52 52 53 54 53 51 47 45 45 45 44 44 45 46 47 49 50 51 52 52 52 52 53 54 56 58 60 62 63 64 66 67 68 68 68 69 69 70 70 70 70 70 70 70 70 70
48 48 47 44 44 44 43 44 47 47 44 41 41 39 38 39 40 41 42 43 44 44 45 47 49 52 53 52 52 52 51 50 50 54 58 58 55 52 52 52 52 52 51 49 48 46 46 46 45 45 46 47 49 50 50 51 52 53 52 51 51 52 55 58 61 62 63 64 66 67 67 68 68 69 69 69 69 69 69 69 69 69 69 69 69
49 49 46 44 44 44 41 44 48 44 41 40 40 40 39 41 43 44 45 46 46 47 48 50 53 55 55 54 54 53 51 52 55 59 59 55 52 52 52 51 50 50 50 49 49 48 47 48 48 48 48 49 50 51 52 52 52 52 51 52 53 55 58 60 61 62 64 65 66 67 68 68 69 69 69 69 68 68 68 68 68 69 69 69 70
50 49 45 43 45 44 41 45 48 44 42 43 42 42 41 43 45 46 47 46 47 49 50 52 53 55 55 54 54 52 54 57 61 62 58 53 52 51 48 47 48 50 51 52 52 50 49 49 48 48 48 50 51 52 53 52 51 51 53 56 58 59 61 62 62 63 65 66 67 68 68 69 69 69 68 67 67 67 67 67 68 68 69 70 70
51 48 44 41 43 44 42 45 47 43 42 42 41 41 42 45 47 49 49 48 48 50 51 52 53 54 54 54 55 57 60 63 63 60 55 51 49 46 44 45 48 51 54 56 54 51 49 47 47 47 49 50 51 52 52 51 52 55 58 60 61 61 62 63 64 64 65 66 68 68 69 69 68 67 67 66 66 66 67 67 68 69 70 70 71
51 48 45 41 41 43 43 45 46 43 42 42 41 42 44 46 48 49 50 50 49 51 52 53 52 52 53 57 60 62 63 63 60 56 50 47 45 44 45 48 51 55 57 57 53 49 47 46 47 49 50 50 50 51 52 54 57 59 61 61 61 62 63 64 65 65 66 67 68 69 69 68 67 67 66 66 66 66 67 68 69 70 71 71 72
51 48 46 45 46 47 46 47 48 47 47 46 46 46 47 45 45 47 47 46 48 50 51 51 52 53 56 59 61 61 60 58 55 50 46 45 45 46 49 52 55 57 57 54 50 47 47 48 49 49 48 49 50 53 56 59 60 61 61 61 62 63 63 65 66 67 68 68 68 67 66 65 65 65 65 65 66 67 68 69 70 70 71 71 71
51 49 47 47 49 50 49 49 50 50 49 49 49 49 48 46 44 47 48 48 50 50 50 51 54 55 57 59 60 59 55 51 48 46 45 46 48 49 52 54 55 55 53 49 47 47 48 49 49 48 49 51 55 57 60 61 61 61 61 62 62 63 65 66 67 68 69 69 67 66 64 63 63 63 64 65 67 68 68 69 70 70 71 71 72
Wind_Direction
275 275 273 274 276 279 282 285 290 293 295 300 308 316 321 328 335 340 340 336 331 329 332 332 329 327 327 327 327 327 326 324 323 322 322 321 320 318 315 313 311 311 311 312 312 314 315 316 317 319 320 321 320 317 311 304 297 290 283 277 271 266 266 265 264 265 267 270 272 274 272 268 267 267 267 267 268 268 268 268 267 267 268 268 271
275 274 274 274 275 278 282 288 293 294 300 307 312 316 320 328 335 338 338 334 330 329 331 331 327 326 326 327 327 327 326 326 328 330 330 329 325 320 316 313 312 312 312 314 315 316 318 320 321 323 324 324 323 319 311 302 293 285 277 270 265 264 264 263 265 268 271 275 276 273 270 270 270 270 269 267 267 267 267 266 265 266 267 270 276
273 272 273 274 274 278 283 290 294 298 306 309 312 315 320 328 334 337 336 332 329 328 329 329 326 325 326 328 328 329 330 333 336 337 336 333 327 323 320 320 320 320 320 319 319 320 321 322 324 326 326 325 324 320 310 299 288 278 270 265 265 265 264 265 268 272 274 275 272 270 272 271 265 260 256 254 256 258 261 266 270 273 277 284 289
271 270 272 273 274 277 282 289 296 302 306 308 311 313 320 328 333 335 334 330 328 327 327 328 326 325 327 328 329 331 335 341 343 342 339 337 337 340 344 345 344 342 338 334 329 326 326 327 328 329 328 327 325 320 308 294 282 270 264 264 266 266 267 271 271 271 272 269 267 269 263 251 242 236 236 242 249 257 265 271 276 283 291 298 306
270 267 270 270 272 275 279 288 297 301 305 308 309 311 319 328 332 333 331 329 326 325 326 327 326 325 327 328 328 330 335 343 345 345 346 350 1 10 12 10 6 1 356 351 345 339 336 335 336 336 333 329 327 318 304 289 273 264 264 266 269 271 274 275 270 267 264 258 258 253 239 231 228 229 236 246 255 265 272 277 286 295 304 313 319
269 265 266 268 270 272 277 288 294 298 305 307 306 311 319 327 330 331 329 327 325 324 324 326 326 325 328 329 328 327 329 340 345 348 356 9 22 24 21 17 14 10 6 1 357 354 350 348 347 344 340 333 329 317 300 283 267 263 265 270 273 276 278 273 264 256 249 242 236 230 225 227 231 239 247 254 262 269 276 287 296 306 316 319 320
269 263 263 265 267 270 276 284 290 297 302 303 306 311 318 325 329 329 327 325 324 323 323 325 325 325 329 329 329 326 325 334 342 349 5 22 25 19 13 10 9 9 9 9 7 3 0 358 355 352 346 338 330 319 299 279 266 264 268 273 277 279 276 268 254 242 235 228 227 229 232 239 246 252 257 262 268 275 286 295 306 315 316 315 314
268 262 260 261 265 270 274 281 288 293 297 302 307 313 318 324 327 326 325 323 323 322 322 324 323 325 328 330 333 328 322 325 336 344 0 15 12 6 3 3 3 3 4 8 10 8 5 2 359 356 353 346 335 323 303 281 269 267 272 277 280 280 275 265 249 235 232 232 235 240 247 253 259 263 266 273 279 288 298 305 313 316 315 313 312
267 260 257 259 263 268 272 280 286 289 294 304 309 314 318 322 325 324 322 322 322 320 320 322 322 323 327 332 336 331 322 316 323 332 340 348 349 350 352 355 359 359 359 0 3 4 6 5 2 359 357 353 345 333 312 289 274 271 275 282 285 284 279 271 257 243 240 242 247 254 261 266 271 275 281 289 295 302 306 307 311 314 313 314 314
264 256 255 257 261 264 268 276 283 287 294 304 311 314 316 320 323 321 320 320 320 319 318 320 319 319 325 332 336 333 325 316 316 323 327 330 334 338 343 348 351 354 355 354 355 358 1 3 4 2 359 358 354 347 331 305 283 275 277 284 288 289 287 282 272 261 256 256 262 270 277 282 286 291 297 302 305 306 307 306 308 309 311 313 314
260 253 253 256 259 261 265 273 280 286 292 303 311 312 314 318 321 318 317 318 319 318 316 317 316 315 321 331 336 335 331 324 323 326 326 328 331 334 339 344 347 349 349 349 350 352 355 357 0 2 1 360 358 355 347 327 300 284 282 284 287 291 292 291 287 282 278 277 281 286 291 294 298 301 303 305 306 306 305 304 304 306 308 309 310
257 251 252 254 257 260 264 271 278 284 290 301 309 310 312 316 318 316 314 316 319 317 314 314 310 309 316 326 334 337 335 333 331 330 328 329 332 335 339 342 344 345 345 345 345 346 348 350 353 358 359 359 359 358 353 342 321 303 294 291 290 292 293 294 294 293 293 293 294 296 297 300 302 303 305 306 305 305 304 303 303 304 306 306 307
256 251 252 253 256 260 265 270 276 282 287 298 306 307 310 314 316 313 312 315 319 317 313 310 304 303 311 320 330 335 334 334 333 330 328 329 332 335 338 340 340 340 340 340 341 342 343 345 346 350 354 355 356 357 357 350 337 322 311 304 301 301 300 300 300 299 299 299 298 298 299 300 301 303 305 305 305 305 304 304 304 305 305 305 306
255 251 252 254 257 261 265 268 273 279 286 296 302 305 308 313 313 310 311 313 317 316 310 306 298 297 305 311 321 327 328 330 329 327 326 327 330 332 334 336 337 336 335 335 337 337 339 341 341 343 347 350 351 352 354 353 348 337 326 317 312 310 308 305 302 301 299 298 297 297 297 298 301 303 304 303 304 304 304 304 304 305 305 304 305
255 251 253 256 258 262 265 267 272 279 286 294 299 303 306 311 310 308 309 312 314 312 308 305 295 293 300 305 311 318 321 323 324 323 322 322 325 328 330 333 334 333 332 331 332 333 334 336 337 337 340 344 346 346 346 347 347 344 336 326 319 316 312 306 301 298 296 295 295 295 296 298 301 302 302 302 303 303 303 304 304 305 304 304 304
254 252 254 257 261 264 268 270 275 280 285 293 298 302 306 309 308 306 308 311 311 305 308 308 296 292 297 301 305 311 315 317 319 319 318 319 322 325 328 330 331 331 330 328 328 329 330 331 332 333 334 337 340 342 341 339 339 340 337 330 323 319 315 308 302 297 295 293 293 294 295 299 302 301 301 302 302 302 303 304 304 304 304 303 303
255 255 256 259 262 265 270 273 277 280 284 292 298 301 305 307 305 304 306 309 308 297 302 308 301 297 295 298 301 307 311 311 314 314 314 317 321 324 326 327 329 329 327 326 325 325 326 327 327 328 329 332 334 337 337 335 333 334 333 329 322 317 313 309 305 302 300 296 294 295 297 300 302 302 302 301 302 302 302 303 304 304 303 303 303
257 258 260 261 263 265 269 273 277 279 283 291 298 301 304 306 303 302 303 306 305 293 293 301 302 301 298 296 299 304 306 307 308 308 311 316 320 322 323 325 326 326 325 323 322 322 322 322 322 323 324 326 329 331 332 330 328 328 327 324 319 314 311 310 309 307 303 299 297 298 301 304 304 304 303 301 301 302 302 303 303 303 303 303 304
260 261 263 264 266 266 268 272 276 279 282 289 297 300 302 304 302 299 300 302 302 294 290 294 298 301 300 297 300 303 304 304 305 308 312 317 319 320 321 323 324 324 322 320 320 320 319 318 318 319 320 321 323 325 326 326 323 323 322 319 316 313 312 314 314 308 303 302 300 301 304 306 305 305 304 302 301 302 302 303 303 303 303 304 304
263 264 265 267 268 269 270 272 276 279 282 287 293 298 300 302 302 298 298 299 300 295 290 290 293 297 299 297 297 299 302 305 308 312 315 317 318 318 319 321 323 322 320 319 318 318 317 315 315 315 316 317 319 320 320 320 318 318 318 315 313 312 314 316 312 306 304 305 303 302 304 304 304 305 304 302 302 303 303 303 303 303 304 304 305
264 265 266 268 270 271 273 274 276 279 282 286 291 296 299 300 301 298 296 297 298 295 290 288 290 293 294 291 291 296 303 307 311 313 314 316 318 318 318 321 322 321 320 319 316 315 315 313 312 313 313 314 316 316 315 315 313 314 315 313 311 312 314 314 307 303 305 306 302 301 302 302 302 303 303 302 303 304 303 303 303 303 304 304 305
264 265 267 269 271 272 273 274 275 279 282 286 290 294 297 299 299 298 295 296 296 293 288 287 289 289 285 285 290 298 303 306 308 310 313 316 319 319 318 321 322 321 321 318 315 314 313 310 310 311 311 312 314 314 312 310 309 310 313 311 310 311 314 311 302 301 304 302 300 300 300 300 301 302 302 302 303 304 303 303 303 303 303 303 304
265 265 267 269 271 272 273 273 276 279 283 287 291 293 297 298 298 297 295 294 292 288 286 286 286 283 282 288 295 299 301 304 306 308 312 316 320 318 318 321 321 321 320 316 313 312 310 308 310 310 309 310 313 312 310 308 307 308 310 309 308 311 315 306 299 303 302 299 299 300 299 299 300 300 300 301 302 303 302 303 302 303 303 303 304
268 268 269 270 272 273 275 276 278 282 286 289 291 294 296 296 296 295 293 291 286 281 279 280 281 282 289 294 298 300 301 303 304 307 312 316 319 317 318 322 321 320 318 313 313 310 308 307 309 310 308 309 311 309 307 306 305 306 307 307 308 311 313 302 298 304 300 297 298 297 297 298 299 300 300 301 301 302 302 302 302 302 302 303 304
270 272 273 274 275 276 278 280 282 285 288 289 291 294 294 293 293 292 289 285 279 276 275 277 282 290 296 299 301 302 301 302 302 306 312 316 318 317 320 321 319 319 316 314 313 309 307 307 308 309 308 308 308 306 305 303 302 303 303 304 306 310 310 303 300 302 299 297 297 295 296 297 298 299 300 300 300 301 301 301 302 302 303 303 303
270 272 274 276 277 278 280 281 283 286 288 290 292 292 292 290 289 287 284 280 277 275 274 278 289 295 298 300 302 302 302 302 303 307 312 317 318 318 320 320 318 318 316 315 313 307 306 306 306 307 306 305 305 303 302 301 300 300 300 302 306 309 310 306 302 300 298 297 296 296 296 296 297 298 299 299 300 301 301 302 302 302 302 302 302
270 272 275 276 278 279 280 282 284 286 289 290 291 289 288 286 283 280 278 276 276 272 272 281 290 295 297 299 301 301 301 301 303 306 309 313 315 317 319 317 316 317 314 313 309 302 301 301 301 302 301 300 300 300 299 299 297 297 299 301 305 309 310 308 303 300 298 297 296 297 296 296 297 298 299 300 301 302 301 301 300 300 300 300 300
270 273 276 278 280 281 282 284 285 287 288 289 288 286 285 282 278 275 273 273 271 269 274 282 288 291 294 298 299 298 298 299 301 303 306 310 312 315 315 310 310 309 305 302 297 293 294 295 297 297 297 297 297 297 297 296 294 294 298 300 303 307 309 308 303 299 297 296 296 296 296 296 296 297 299 301 301 300 299 299 298 298 299 298 298
271 273 276 278 281 282 284 285 286 287 287 286 285 283 281 277 274 271 268 268 267 271 277 282 286 290 294 297 296 295 297 298 301 304 308 312 313 316 314 306 303 300 297 295 292 291 291 292 294 295 296 297 297 296 295 294 292 293 296 298 300 303 306 306 302 298 297 296 297 297 296 296 297 299 300 300 299 297 297 297 297 297 298 298 299
271 273 275 278 280 282 284 285 285 285 284 284 282 280 277 274 272 268 264 264 267 274 279 282 285 290 293 293 293 293 296 299 303 308 311 314 316 316 312 305 300 297 296 297 296 293 291 292 295 296 297 297 297 296 295 294 292 292 295 297 298 301 304 303 300 297 296 297 297 297 297 298 299 301 299 297 296 296 296 296 297 297 298 299 300
270 273 275 277 279 281 282 283 284 283 282 281 279 277 275 272 270 268 266 267 271 277 279 282 285 288 290 291 292 294 297 301 305 310 313 317 317 313 308 304 301 299 298 300 299 296 295 296 297 298 298 297 296 295 294 294 293 293 295 297 298 300 302 300 297 296 296 297 297 297 298 300 300 299 296 295 295 296 296 296 297 298 299 300 300
269 272 274 276 278 279 281 282 282 280 280 279 276 274 274 272 271 269 270 272 275 278 279 282 284 287 290 292 294 297 300 304 307 311 314 316 313 307 304 303 302 300 300 301 300 299 299 299 299 299 299 297 296 294 295 295 295 295 295 297 299 300 299 297 296 295 295 296 297 298 300 300 298 296 295 294 295 295 296 297 298 299 299 300 300
269 271 273 275 277 278 279 280 279 278 278 277 273 272 273 273 273 273 274 276 278 279 280 282 284 287 290 293 296 299 302 306 309 310 310 309 307 303 301 302 300 299 300 300 300 302 303 303 301 301 298 296 295 295 294 294 295 296 296 297 299 299 297 296 295 295 296 297 298 300 299 297 295 294 294 294 295 296 297 298 298 299 300 300 300
269 271 272 274 276 277 278 278 277 276 276 274 271 270 271 273 274 275 276 278 279 279 280 282 285 288 291 294 297 299 303 306 308 308 307 306 303 300 300 300 298 297 299 298 298 303 308 308 304 300 297 295 295 295 294 294 295 296 297 298 299 297 296 296 296 297 298 298 298 297 296 295 294 294 295 296 297 298 299 299 300 300 300 300 300
269 270 272 274 275 275 275 274 274 274 274 272 270 270 271 272 274 276 277 277 278 279 281 283 286 289 291 294 297 300 304 306 307 307 307 305 301 297 298 300 299 300 299 295 295 303 311 313 308 300 297 296 296 296 295 295 296 297 298 298 297 296 295 296 297 299 299 298 297 296 296 296 296 296 297 298 299 299 300 300 300 300 300 300 300
268 270 271 272 272 272 272 271 271 272 272 271 270 270 271 273 275 276 277 278 279 281 282 284 286 287 290 292 296 300 304 307 307 305 303 301 296 294 295 298 300 301 299 295 295 300 308 313 308 301 298 297 297 296 296 295 296 297 298 297 296 296 296 297 299 299 298 297 298 298 298 298 298 299 299 299 300 300 300 300 300 300 300 301 301
267 268 269 269 269 269 269 269 269 269 270 270 271 272 274 276 278 279 280 280 281 282 282 283 284 286 289 293 296 300 304 309 307 301 296 292 286 287 292 295 299 301 297 295 296 299 304 308 306 302 300 299 298 297 297 296 297 298 298 297 297 297 297 298 299 299 299 299 300 300 300 300 300 300 300 300 300 300 300 300 300 301 301 301 302
265 266 267 267 267 266 266 267 267 268 269 270 273 275 277 279 281 281 281 281 282 281 282 283 284 287 292 295 296 297 301 304 298 292 289 283 277 284 291 295 299 299 296 294 297 299 303 305 305 303 302 299 298 297 297 297 297 298 298 297 297 297 298 298 298 299 300 300 300 301 302 302 302 301 301 301 301 300 300 300 301 301 302 302 302
262 263 264 264 264 263 264 264 265 268 270 271 275 276 276 277 280 280 280 281 281 281 283 285 287 289 289 289 290 293 297 293 284 283 280 274 278 288 295 299 300 298 297 298 300 302 303 304 305 303 300 298 297 297 297 297 297 297 297 296 297 297 297 298 299 300 301 301 302 303 303 303 302 301 301 300 300 300 300 301 301 302 303 303 303
260 261 261 261 261 262 262 263 266 269 271 272 272 272 273 275 277 277 279 281 281 282 285 286 286 284 281 281 283 285 284 274 273 277 273 274 283 292 299 302 301 298 298 299 301 302 302 303 304 301 298 297 296 297 297 297 297 296 296 296 297 297 299 300 301 302 302 303 303 303 303 302 301 301 300 300 301 301 301 302 302 303 303 303 303
259 259 259 259 260 261 262 265 269 271 271 271 270 270 273 275 276 277 280 281 281 283 286 285 280 278 278 280 281 282 278 273 274 276 277 281 289 296 301 301 299 297 296 295 298 301 301 302 303 300 298 297 297 297 297 297 297 296 295 297 298 299 301 301 302 303 303 304 304 303 302 301 301 301 301 301 302 302 302 303 303 303 303 303 303
258 257 258 258 259 262 265 268 270 270 271 272 272 273 274 275 276 278 278 278 279 283 287 286 280 278 281 283 287 289 286 281 279 279 282 287 295 300 301 300 297 294 291 292 298 300 300 301 302 301 299 297 297 298 298 298 297 296 296 298 299 300 301 302 303 304 304 304 303 302 302 301 301 301 302 302 302 303 303 303 303 303 304 304 304
257 257 257 258 261 264 267 269 271 270 271 272 273 274 275 277 278 278 276 274 277 280 282 284 282 281 283 287 293 296 292 287 285 286 288 293 299 301 299 298 295 290 290 294 299 301 300 301 302 301 299 297 297 298 298 298 297 297 298 298 299 300 300 302 303 304 303 302 302 302 301 301 301 302 302 302 303 303 303 304 304 304 304 305 305
257 257 257 259 263 265 268 271 270 269 271 274 275 274 275 276 276 275 274 274 275 275 276 281 282 281 283 288 294 296 291 288 289 291 295 298 301 301 299 297 293 291 293 297 300 301 301 301 302 300 299 298 298 298 298 298 298 299 299 299 300 301 302 303 304 304 303 301 301 302 302 302 302 302 302 303 303 304 304 304 305 305 305 305 306
256 257 258 261 264 266 270 272 269 268 271 273 272 271 270 270 270 271 273 274 275 275 278 280 280 281 284 289 294 294 290 287 289 295 299 300 300 300 299 296 293 293 296 298 299 300 300 300 299 297 297 297 298 298 298 299 299 299 300 300 300 301 302 303 303 302 301 301 302 302 302 302 302 302 303 303 304 304 305 305 305 305 306 306 306
256 257 260 262 264 266 268 266 264 266 269 269 269 268 268 268 269 271 272 274 275 278 280 280 280 283 288 291 295 295 291 290 293 298 299 298 298 300 298 296 295 294 295 297 299 299 298 298 297 296 297 297 298 298 299 300 300 300 300 301 301 302 303 303 302 301 301 301 302 302 302 302 303 303 304 305 305 305 305 306 306 307 307 307 307
256 257 260 262 263 263 261 260 263 267 268 269 268 267 269 271 273 273 272 273 276 279 281 282 284 288 291 293 294 294 292 293 296 298 297 295 296 297 295 294 293 291 293 297 298 299 298 297 297 297 297 298 299 300 300 300 301 301 302 303 304 304 303 302 302 301 302 302 302 302 302 303 304 305 305 305 306 306 307 307 308 308 308 308 307
255 257 258 259 259 259 257 258 262 265 266 266 265 266 269 272 273 274 274 275 277 280 282 284 287 289 289 291 292 292 292 294 295 295 294 293 293 292 290 288 287 289 294 297 298 299 298 297 297 297 298 299 300 300 300 301 302 303 304 305 304 303 302 302 302 302 302 302 302 303 304 304 305 305 306 306 307 308 309 309 309 309 309 308 308
255 257 256 254 254 255 255 256 259 261 262 263 263 266 270 272 273 274 275 277 278 280 281 282 285 285 286 290 291 291 292 292 293 292 291 290 289 286 283 284 287 290 294 296 297 298 297 297 297 298 299 299 299 300 301 303 304 305 304 304 302 302 302 302 302 302 302 302 303 304 306 306 306 307 308 309 310 311 311 311 311 311 311 310 310
255 256 256 253 253 255 256 258 260 260 261 263 264 267 269 271 273 273 275 279 280 281 280 282 285 285 286 289 290 291 291 291 291 290 288 285 282 281 282 286 289 292 293 295 296 296 297 297 297 298 298 298 299 301 302 304 304 304 303 302 301 301 302 302 302 303 303 304 305 306 306 307 308 309 310 311 312 312 312 313 313 313 313 312 312
255 255 255 254 254 256 258 259 261 262 263 264 266 267 267 266 268 271 276 282 282 281 281 284 287 287 286 288 289 290 289 288 290 288 284 282 281 282 285 288 291 292 294 295 295 295 295 296 295 296 297 299 301 302 303 303 302 302 301 301 301 301 302 302 303 304 305 306 307 307 307 308 310 311 312 313 313 314 315 315 315 315 315 314 312
Height
10899 10899 10899 10898 10897 10897 10897 10897 10896 10895 10894 10894 10892 10891 10891 10890 10889 10888 10887 10886 10885 10883 10882 10880 10878 10877 10876 10874 10872 10871 10869 10867 10865 10864 10862 10860 10858 10857 10855 10853 10851 10850 10848 10846 10844 10843 10841 10840 10838 10837 10836 10834 10833 10832 10831 10830 10829 10828 10827 10826 10825 10824 10823 10822 10821 10821 10820 10819 10818 10817 10817 10816 10815 10815 10814 10814 10813 10813 10813 10812 10812 10811 10810 10810 10809
10898 10897 10897 10896 10895 10895 10895 10895 10894 10894 10893 10892 10890 10890 10889 10889 10888 10887 10886 10884 10883 10881 10880 10878 10876 10875 10874 10873 10871 10869 10868 10866 10864 10862 10861 10859 10857 10855 10854 10852 10850 10848 10847 10845 10843 10841 10839 10838 10837 10835 10834 10833 10831 10830 10829 10828 10827 10826 10825 10824 10823 10823 10822 10821 10820 10819 10819 10818 10817 10816 10815 10815 10814 10814 10813 10813 10813 10812 10812 10811 10810 10809 10809 10808 10808
10896 10895 10895 10894 10894 10894 10893 10893 10893 10892 10891 10890 10889 10888 10888 10887 10886 10885 10884 10883 10881 10880 10878 10877 10875 10874 10872 10871 10870 10868 10866 10865 10863 10861 10860 10858 10856 10854 10852 10851 10849 10847 10845 10844 10841 10840 10838 10837 10835 10834 10832 10831 10830 10829 10828 10827 10826 10825 10824 10823 10822 10821 10821 10820 10819 10818 10818 10817 10816 10815 10815 10814 10814 10813 10813 10812 10812 10811 10811 10810 10809 10808 10807 10807 10807
10894 10894 10893 10893 10892 10892 10892 10892 10891 10891 10890 10888 10887 10886 10886 10885 10885 10884 10882 10881 10880 10878 10877 10875 10874 10872 10871 10870 10868 10867 10865 10864 10863 10861 10859 10857 10855 10853 10852 10850 10848 10847 10844 10843 10840 10839 10837 10835 10834 10832 10831 10829 10828 10827 10826 10825 10825 10824 10823 10822 10821 10821 10820 10819 10818 10817 10817 10816 10815 10815 10814 10813 10813 10812 10812 10811 10811 10810 10809 10808 10807 10807 10807 10807 10806
10892 10892 10891 10891 10890 10890 10890 10890 10890 10889 10888 10886 10885 10885 10884 10884 10883 10882 10881 10880 10878 10877 10875 10874 10872 10871 10870 10868 10867 10866 10865 10864 10862 10861 10859 10857 10855 10853 10852 10850 10848 10846 10844 10842 10840 10838 10836 10834 10833 10831 10829 10828 10826 10825 10825 10824 10823 10823 10822 10821 10821 10820 10819 10818 10818 10817 10816 10815 10815 10814 10813 10812 10812 10811 10811 10810 10809 10808 10807 10806 10806 10806 10806 10806 10805
10890 10890 10889 10889 10889 10888 10889 10889 10888 10887 10886 10885 10884 10883 10883 10882 10881 10880 10879 10878 10877 10875 10874 10873 10871 10870 10868 10867 10865 10864 10864 10863 10862 10861 10859 10857 10855 10853 10852 10850 10848 10846 10844 10842 10840 10837 10836 10834 10832 10830 10828 10826 10825 10824 10824 10823 10822 10822 10821 10821 10820 10819 10819 10818 10817 10816 10816 10815 10814 10813 10812 10812 10811 10810 10810 10809 10808 10807 10806 10806 10806 10806 10805 10804 10803
10888 10887 10887 10887 10887 10887 10887 10887 10886 10885 10885 10883 10882 10882 10881 10881 10880 10879 10878 10876 10875 10874 10872 10871 10870 10868 10867 10865 10864 10863 10863 10862 10862 10860 10858 10856 10854 10853 10852 10850 10848 10846 10844 10842 10840 10838 10836 10834 10832 10830 10828 10826 10824 10823 10823 10822 10822 10821 10821 10820 10819 10819 10818 10817 10817 10816 10815 10814 10813 10813 10812 10811 10810 10809 10809 10808 10807 10806 10805 10805 10805 10804 10803 10802 10800
10885 10885 10885 10885 10885 10885 10885 10885 10884 10883 10883 10882 10881 10880 10879 10879 10878 10877 10876 10875 10873 10872 10871 10870 10868 10867 10865 10864 10863 10862 10862 10861 10861 10860 10858 10856 10854 10852 10851 10850 10848 10846 10844 10842 10840 10838 10836 10834 10832 10830 10828 10826 10824 10823 10822 10821 10821 10820 10820 10820 10819 10818 10817 10817 10816 10815 10814 10814 10813 10812 10811 10810 10809 10808 10807 10806 10805 10804 10804 10803 10803 10801 10800 10798 10796
10883 10882 10883 10883 10884 10883 10883 10882 10882 10881 10881 10880 10879 10878 10878 10877 10876 10875 10874 10873 10872 10870 10869 10868 10867 10865 10864 10863 10862 10861 10860 10860 10859 10858 10857 10855 10853 10851 10850 10849 10848 10846 10844 10842 10840 10838 10836 10834 10832 10830 10828 10826 10824 10823 10822 10821 10820 10820 10820 10819 10819 10818 10817 10816 10816 10815 10814 10813 10812 10811 10810 10809 10808 10807 10807 10805 10805 10804 10803 10802 10800 10798 10796 10795 10793
10881 10881 10881 10881 10881 10881 10881 10879 10879 10879 10879 10879 10877 10877 10876 10875 10874 10873 10873 10872 10870 10869 10867 10866 10865 10864 10863 10862 10861 10860 10859 10858 10858 10857 10856 10854 10852 10851 10849 10848 10847 10845 10844 10842 10840 10838 10837 10835 10833 10831 10829 10827 10825 10823 10822 10821 10820 10820 10819 10819 10818 10818 10817 10816 10815 10814 10813 10812 10811 10810 10809 10808 10807 10807 10806 10805 10804 10803 10801 10799 10797 10795 10793 10792 10791
10878 10879 10879 10879 10879 10879 10878 10877 10877 10877 10877 10877 10876 10875 10874 10874 10873 10872 10871 10870 10869 10867 10866 10865 10863 10862 10862 10860 10859 10858 10858 10857 10857 10856 10855 10854 10852 10850 10849 10847 10846 10844 10843 10841 10840 10838 10836 10835 10833 10831 10829 10827 10825 10824 10822 10821 10820 10820 10819 10818 10818 10817 10816 10816 10815 10814 10813 10811 10810 10809 10808 10807 10806 10806 10805 10803 10802 10800 10798 10796 10794 10792 10791 10789 10788
10876 10876 10876 10876 10876 10876 10876 10875 10875 10875 10875 10875 10874 10873 10872 10872 10871 10869 10869 10868 10867 10866 10864 10863 10862 10860 10860 10859 10858 10857 10857 10856 10856 10855 10854 10852 10851 10850 10848 10846 10845 10843 10842 10840 10839 10837 10836 10834 10833 10831 10829 10828 10826 10824 10823 10821 10820 10819 10819 10818 10817 10817 10816 10815 10814 10813 10812 10810 10809 10807 10806 10805 10805 10804 10802 10800 10799 10797 10795 10792 10790 10789 10788 10786 10784
10873 10874 10874 10873 10874 10873 10873 10873 10873 10873 10873 10873 10872 10871 10870 10870 10868 10867 10866 10866 10866 10864 10863 10861 10860 10859 10858 10858 10857 10856 10855 10855 10854 10854 10852 10851 10850 10848 10847 10845 10843 10842 10841 10839 10838 10836 10835 10834 10832 10831 10829 10827 10826 10824 10823 10821 10820 10819 10818 10817 10817 10816 10815 10814 10813 10811 10810 10809 10807 10805 10804 10803 10802 10801 10799 10797 10796 10794 10792 10789 10788 10786 10784 10782 10781
10871 10871 10871 10871 10871 10871 10871 10871 10871 10871 10871 10871 10870 10869 10868 10867 10866 10865 10864 10864 10864 10862 10861 10859 10858 10857 10856 10856 10855 10854 10853 10853 10853 10852 10851 10849 10848 10847 10845 10844 10842 10841 10839 10838 10836 10835 10833 10832 10831 10830 10828 10827 10825 10824 10822 10821 10820 10819 10817 10816 10815 10814 10813 10812 10811 10809 10808 10806 10804 10802 10801 10800 10799 10798 10796 10794 10792 10791 10788 10786 10784 10783 10781 10779 10777
10867 10868 10868 10868 10868 10868 10869 10869 10869 10869 10869 10869 10868 10867 10866 10865 10864 10863 10862 10862 10861 10860 10859 10858 10857 10856 10854 10854 10853 10852 10852 10851 10850 10850 10849 10848 10846 10845 10844 10842 10841 10839 10838 10836 10835 10833 10832 10830 10829 10828 10827 10825 10824 10822 10821 10820 10819 10818 10816 10815 10814 10813 10812 10810 10808 10806 10805 10803 10801 10800 10798 10797 10796 10795 10792 10790 10789 10787 10785 10783 10781 10779 10777 10775 10773
10864 10864 10865 10865 10866 10866 10866 10866 10867 10867 10867 10867 10866 10865 10863 10862 10861 10860 10860 10859 10859 10858 10857 10856 10855 10854 10852 10851 10850 10850 10850 10849 10848 10847 10847 10846 10844 10843 10842 10840 10839 10838 10836 10835 10833 10832 10830 10828 10827 10826 10825 10823 10822 10821 10819 10818 10817 10816 10815 10813 10812 10810 10809 10807 10806 10804 10802 10800 10799 10797 10795 10794 10792 10791 10789 10787 10785 10784 10781 10779 10777 10775 10773 10771 10769
10861 10861 10862 10862 10863 10863 10864 10864 10865 10865 10864 10864 10863 10862 10861 10860 10859 10858 10857 10856 10856 10856 10855 10854 10853 10852 10850 10849 10848 10848 10847 10847 10846 10845 10844 10843 10842 10841 10840 10838 10837 10836 10834 10833 10831 10830 10828 10827 10825 10823 10822 10821 10820 10819 10818 10816 10815 10814 10812 10811 10809 10808 10806 10804 10802 10800 10799 10797 10796 10795 10792 10790 10788 10787 10786 10783 10782 10780 10778 10776 10774 10772 10770 10767 10765
10858 10858 10859 10860 10860 10861 10861 10862 10862 10862 10862 10861 10860 10860 10859 10857 10856 10855 10854 10854 10854 10853 10852 10852 10851 10850 10848 10847 10846 10846 10845 10844 10843 10842 10841 10841 10840 10839 10838 10836 10835 10834 10832 10831 10829 10828 10827 10825 10823 10822 10820 10819 10817 10816 10815 10814 10813 10811 10810 10808 10806 10805 10803 10801 10799 10797 10795 10794 10792 10791 10788 10786 10785 10784 10782 10780 10778 10776 10774 10772 10770 10768 10766 10764 10761
10855 10856 10856 10856 10857 10858 10858 10859 10860 10860 10859 10859 10858 10857 10856 10855 10854 10853 10852 10851 10851 10850 10850 10849 10849 10848 10846 10845 10844 10843 10843 10842 10841 10840 10839 10838 10837 10836 10835 10834 10833 10832 10830 10828 10827 10826 10824 10823 10821 10820 10818 10816 10815 10814 10813 10811 10810 10809 10807 10805 10803 10801 10799 10798 10795 10793 10792 10791 10789 10786 10784 10782 10781 10780 10778 10776 10774 10772 10770 10768 10767 10764 10762 10760 10757
10852 10853 10853 10853 10854 10855 10856 10856 10857 10857 10856 10856 10855 10854 10853 10852 10851 10850 10849 10848 10848 10847 10847 10847 10846 10845 10844 10843 10842 10842 10841 10840 10839 10838 10837 10836 10835 10833 10832 10831 10830 10829 10827 10826 10824 10823 10821 10820 10819 10817 10816 10814 10813 10811 10810 10809 10807 10806 10804 10802 10800 10798 10796 10794 10792 10789 10788 10787 10784 10782 10780 10778 10776 10776 10774 10772 10770 10768 10766 10764 10762 10760 10757 10755 10753
10849 10849 10850 10851 10851 10852 10853 10853 10854 10854 10854 10853 10852 10851 10850 10849 10848 10847 10846 10846 10845 10844 10844 10844 10843 10842 10842 10841 10840 10840 10839 10838 10837 10836 10835 10834 10832 10831 10830 10829 10828 10826 10825 10823 10821 10819 10818 10817 10815 10814 10813 10811 10810 10809 10807 10806 10804 10803 10802 10800 10797 10795 10793 10791 10788 10785 10785 10782 10780 10778 10776 10774 10772 10771 10770 10768 10766 10764 10761 10760 10758 10755 10753 10750 10748
10846 10846 10847 10848 10848 10849 10850 10850 10851 10851 10850 10850 10849 10848 10847 10846 10845 10844 10844 10843 10842 10841 10841 10841 10840 10840 10839 10839 10838 10838 10837 10836 10835 10834 10833 10832 10830 10829 10827 10826 10825 10823 10822 10820 10818 10816 10815 10814 10812 10811 10809 10808 10807 10806 10805 10803 10802 10800 10799 10797 10795 10793 10791 10788 10784 10782 10781 10778 10776 10774 10772 10770 10768 10767 10765 10763 10761 10760 10757 10755 10753 10751 10748 10745 10743
10843 10843 10844 10845 10845 10846 10846 10847 10848 10848 10847 10846 10846 10845 10844 10843 10842 10842 10841 10840 10839 10839 10839 10838 10838 10837 10837 10837 10836 10836 10835 10834 10833 10832 10831 10830 10828 10827 10825 10824 10822 10820 10819 10817 10815 10813 10812 10810 10809 10808 10806 10805 10804 10803 10801 10800 10798 10797 10796 10794 10792 10790 10789 10783 10778 10778 10777 10775 10773 10770 10768 10766 10765 10763 10761 10759 10757 10755 10753 10750 10748 10746 10743 10740 10738
10839 10840 10841 10842 10842 10843 10843 10844 10845 10845 10844 10843 10842 10841 10841 10840 10839 10839 10838 10837 10837 10837 10836 10836 10835 10835 10835 10835 10834 10833 10833 10831 10830 10830 10829 10828 10826 10824 10823 10821 10819 10817 10815 10813 10811 10809 10808 10807 10805 10804 10803 10801 10801 10799 10798 10796 10794 10793 10792 10791 10789 10787 10786 10779 10774 10774 10773 10770 10769 10767 10764 10762 10760 10759 10756 10754 10752 10750 10748 10745 10743 10740 10738 10735 10732
10836 10837 10838 10839 10839 10840 10839 10840 10841 10841 10840 10839 10839 10838 10838 10837 10836 10836 10835 10835 10834 10834 10834 10833 10833 10832 10832 10831 10831 10831 10830 10829 10828 10827 10827 10825 10824 10822 10821 10819 10817 10815 10813 10810 10808 10806 10805 10803 10801 10800 10799 10798 10797 10796 10795 10793 10792 10790 10789 10788 10786 10784 10783 10777 10772 10771 10769 10766 10765 10762 10760 10758 10756 10754 10752 10750 10748 10746 10743 10740 10738 10735 10732 10729 10726
10832 10833 10834 10835 10836 10836 10836 10837 10837 10837 10836 10836 10835 10835 10835 10834 10833 10833 10833 10832 10832 10832 10831 10830 10830 10829 10829 10828 10828 10828 10828 10827 10826 10826 10825 10824 10821 10819 10818 10816 10814 10812 10811 10808 10806 10803 10801 10800 10798 10796 10795 10794 10793 10792 10791 10790 10788 10787 10785 10783 10782 10781 10779 10775 10770 10767 10765 10762 10760 10758 10755 10753 10751 10749 10747 10745 10743 10740 10738 10735 10732 10730 10727 10724 10721
10828 10830 10831 10831 10832 10833 10833 10833 10833 10834 10833 10832 10832 10831 10831 10831 10830 10830 10830 10830 10830 10829 10827 10827 10827 10826 10825 10825 10825 10825 10825 10825 10825 10825 10825 10825 10823 10820 10818 10816 10814 10811 10810 10808 10807 10803 10799 10798 10797 10795 10794 10792 10790 10789 10787 10786 10784 10782 10781 10779 10777 10775 10773 10771 10766 10763 10761 10758 10755 10753 10751 10748 10746 10744 10742 10740 10737 10735 10732 10730 10727 10724 10722 10719 10715
10825 10826 10827 10828 10829 10829 10830 10830 10829 10830 10829 10829 10829 10828 10828 10827 10827 10827 10828 10828 10827 10826 10825 10824 10824 10823 10823 10822 10822 10822 10822 10822 10824 10824 10824 10825 10825 10823 10820 10818 10816 10813 10811 10810 10809 10805 10800 10797 10795 10793 10791 10789 10787 10785 10783 10781 10780 10778 10776 10774 10772 10770 10768 10765 10762 10759 10756 10753 10750 10748 10746 10743 10741 10739 10737 10735 10732 10730 10727 10724 10722 10719 10716 10713 10710
10821 10822 10824 10824 10826 10826 10826 10826 10826 10826 10826 10826 10825 10825 10824 10824 10823 10824 10825 10825 10824 10823 10822 10822 10821 10820 10819 10819 10819 10818 10819 10819 10820 10821 10821 10821 10822 10821 10819 10818 10816 10812 10810 10808 10807 10803 10799 10795 10793 10790 10787 10785 10783 10780 10779 10777 10775 10773 10771 10769 10767 10765 10763 10760 10757 10754 10751 10748 10746 10743 10741 10738 10736 10734 10732 10730 10728 10725 10722 10719 10716 10713 10710 10707 10704
10816 10819 10821 10821 10822 10822 10823 10823 10823 10822 10823 10823 10822 10821 10820 10820 10820 10820 10821 10821 10820 10820 10819 10819 10817 10816 10816 10815 10815 10815 10815 10816 10817 10817 10817 10817 10817 10816 10815 10813 10811 10808 10805 10804 10802 10799 10796 10792 10789 10786 10784 10781 10779 10776 10774 10772 10770 10768 10766 10764 10762 10760 10758 10755 10753 10749 10745 10743 10741 10738 10736 10733 10731 10728 10726 10724 10722 10720 10717 10714 10710 10707 10704 10701 10698
10813 10815 10817 10818 10819 10819 10819 10819 10819 10819 10819 10819 10818 10817 10817 10816 10817 10817 10817 10817 10817 10817 10816 10815 10814 10813 10812 10812 10812 10812 10812 10813 10814 10814 10814 10814 10813 10811 10810 10807 10805 10802 10800 10798 10796 10794 10791 10788 10785 10782 10780 10777 10774 10772 10770 10768 10766 10763 10761 10759 10757 10754 10752 10750 10748 10744 10740 10738 10736 10733 10731 10728 10726 10724 10721 10719 10716 10714 10711 10708 10704 10701 10697 10694 10691
10810 10812 10814 10815 10815 10815 10815 10816 10816 10816 10816 10816 10815 10814 10813 10813 10813 10813 10813 10813 10814 10814 10813 10811 10810 10809 10808 10808 10808 10809 10809 10810 10811 10811 10811 10812 10810 10808 10805 10802 10799 10797 10795 10793 10791 10788 10786 10783 10780 10777 10775 10773 10770 10768 10765 10763 10761 10759 10756 10754 10751 10749 10746 10744 10742 10739 10736 10734 10731 10728 10726 10723 10721 10719 10716 10713 10710 10708 10705 10702 10699 10695 10692 10688 10685
10807 10808 10811 10811 10812 10812 10812 10812 10812 10812 10812 10811 10811 10810 10810 10810 10810 10810 10810 10810 10810 10810 10809 10807 10807 10806 10805 10805 10805 10806 10806 10807 10808 10808 10809 10809 10807 10805 10801 10798 10796 10793 10791 10789 10785 10783 10781 10778 10775 10772 10770 10768 10766 10764 10761 10759 10757 10754 10752 10749 10746 10743 10741 10738 10736 10734 10731 10729 10726 10723 10721 10718 10716 10713 10710 10707 10704 10701 10698 10695 10692 10689 10685 10682 10679
10803 10805 10807 10808 10808 10808 10808 10809 10808 10807 10808 10808 10807 10807 10807 10807 10807 10807 10807 10807 10807 10806 10805 10804 10803 10803 10802 10802 10802 10803 10804 10805 10806 10806 10807 10806 10803 10801 10798 10796 10794 10790 10787 10784 10780 10778 10775 10773 10770 10767 10765 10763 10761 10759 10757 10754 10752 10749 10747 10744 10741 10738 10735 10733 10730 10728 10726 10723 10720 10718 10716 10713 10710 10707 10704 10700 10697 10694 10691 10688 10685 10682 10678 10675 10671
10800 10801 10803 10804 10804 10804 10804 10804 10803 10803 10804 10804 10804 10804 10805 10805 10804 10804 10803 10803 10803 10802 10801 10801 10800 10799 10799 10799 10800 10801 10801 10802 10803 10804 10804 10803 10800 10797 10795 10793 10790 10786 10782 10779 10775 10772 10769 10767 10765 10762 10760 10758 10756 10754 10752 10749 10747 10744 10741 10738 10735 10733 10730 10728 10725 10723 10720 10718 10715 10713 10710 10708 10705 10701 10698 10694 10691 10688 10684 10681 10678 10674 10671 10667 10664
10797 10798 10799 10800 10800 10800 10800 10800 10799 10799 10800 10800 10801 10802 10802 10802 10801 10801 10800 10799 10799 10798 10798 10797 10797 10796 10796 10797 10797 10798 10799 10799 10800 10802 10801 10799 10797 10793 10791 10788 10785 10782 10778 10774 10770 10767 10764 10762 10760 10757 10755 10753 10751 10749 10746 10744 10741 10738 10735 10733 10730 10727 10725 10722 10720 10718 10715 10713 10710 10708 10705 10702 10699 10695 10692 10688 10684 10681 10678 10674 10671 10667 10663 10660 10656
10793 10794 10796 10796 10796 10796 10795 10795 10794 10795 10797 10798 10799 10799 10799 10799 10798 10798 10797 10796 10795 10795 10794 10794 10793 10793 10794 10794 10795 10796 10796 10796 10797 10798 10796 10796 10795 10790 10786 10784 10780 10777 10773 10769 10766 10762 10760 10758 10755 10753 10751 10748 10745 10744 10741 10738 10735 10733 10730 10727 10725 10722 10720 10717 10715 10713 10710 10708 10705 10702 10699 10696 10693 10689 10686 10682 10678 10675 10671 10667 10664 10660 10656 10652 10648
10790 10791 10792 10793 10792 10792 10791 10791 10791 10792 10794 10795 10797 10797 10796 10796 10796 10795 10793 10792 10792 10791 10791 10791 10790 10790 10791 10791 10793 10793 10793 10794 10795 10795 10792 10791 10791 10785 10782 10779 10775 10771 10767 10764 10761 10758 10756 10753 10751 10748 10746 10743 10740 10738 10736 10733 10730 10727 10725 10722 10720 10717 10715 10713 10711 10708 10706 10703 10700 10697 10693 10690 10686 10683 10679 10676 10672 10669 10665 10661 10656 10652 10649 10645 10641
10786 10787 10789 10788 10788 10787 10787 10787 10787 10790 10791 10793 10795 10794 10793 10794 10795 10793 10790 10789 10788 10787 10787 10787 10787 10787 10787 10789 10791 10790 10791 10792 10792 10791 10787 10785 10785 10780 10777 10773 10768 10764 10761 10759 10756 10754 10751 10749 10746 10744 10742 10739 10736 10733 10731 10728 10725 10723 10720 10718 10716 10713 10710 10708 10706 10704 10701 10698 10694 10691 10688 10684 10680 10677 10673 10670 10666 10662 10658 10654 10650 10646 10641 10637 10633
10782 10784 10784 10784 10784 10783 10783 10784 10785 10787 10788 10790 10792 10791 10789 10791 10791 10789 10787 10786 10784 10783 10783 10783 10783 10783 10783 10786 10788 10787 10787 10788 10786 10785 10782 10779 10778 10775 10771 10767 10763 10759 10756 10754 10752 10749 10747 10745 10742 10739 10737 10734 10731 10728 10726 10723 10721 10719 10716 10714 10711 10708 10705 10703 10701 10698 10695 10692 10689 10685 10681 10678 10674 10671 10667 10664 10660 10656 10651 10647 10643 10639 10635 10630 10626
10779 10780 10780 10779 10779 10779 10780 10782 10783 10784 10784 10785 10787 10786 10785 10785 10784 10783 10783 10782 10780 10779 10779 10778 10779 10779 10779 10781 10782 10781 10782 10782 10780 10778 10775 10773 10771 10767 10764 10760 10757 10754 10751 10749 10747 10745 10743 10740 10738 10735 10732 10729 10727 10724 10722 10719 10716 10714 10712 10710 10707 10703 10701 10698 10695 10692 10689 10686 10683 10679 10675 10671 10668 10664 10660 10656 10652 10648 10644 10640 10636 10632 10628 10624 10620
10774 10775 10775 10774 10775 10776 10777 10779 10780 10779 10779 10780 10781 10780 10780 10780 10779 10778 10778 10777 10776 10775 10775 10774 10775 10775 10774 10774 10774 10774 10774 10773 10772 10771 10768 10765 10763 10759 10756 10753 10751 10749 10746 10744 10742 10740 10738 10736 10733 10731 10728 10725 10722 10720 10718 10715 10712 10710 10708 10706 10703 10699 10696 10694 10690 10687 10684 10681 10677 10673 10669 10665 10661 10657 10653 10649 10645 10641 10637 10633 10629 10624 10620 10616 10612
10769 10770 10770 10770 10772 10774 10774 10776 10776 10774 10774 10775 10775 10774 10774 10774 10774 10773 10772 10772 10772 10772 10771 10771 10770 10770 10769 10768 10767 10766 10765 10764 10763 10762 10760 10757 10755 10752 10749 10747 10745 10743 10741 10739 10737 10735 10733 10731 10728 10726 10724 10721 10719 10716 10714 10712 10709 10706 10704 10702 10699 10695 10692 10689 10686 10683 10679 10676 10672 10668 10664 10660 10655 10651 10647 10643 10639 10634 10630 10626 10622 10617 10613 10609 10605
10764 10765 10765 10768 10771 10771 10772 10774 10771 10769 10770 10771 10770 10769 10769 10769 10769 10768 10768 10768 10768 10767 10767 10766 10765 10764 10764 10762 10761 10760 10759 10757 10755 10753 10751 10749 10747 10745 10743 10740 10739 10738 10736 10734 10732 10730 10728 10726 10723 10721 10719 10717 10715 10713 10710 10708 10706 10703 10700 10698 10696 10691 10686 10683 10681 10677 10673 10670 10666 10662 10658 10654 10650 10645 10641 10637 10632 10628 10623 10619 10615 10611 10606 10601 10597
10759 10759 10762 10767 10768 10768 10772 10770 10763 10763 10766 10766 10765 10764 10765 10765 10764 10763 10763 10763 10763 10763 10762 10761 10760 10759 10758 10757 10755 10755 10753 10751 10749 10747 10744 10742 10740 10738 10737 10735 10734 10733 10732 10730 10728 10726 10723 10721 10719 10717 10715 10713 10710 10708 10706 10704 10701 10699 10696 10694 10692 10689 10684 10679 10676 10672 10668 10665 10661 10656 10652 10648 10644 10639 10635 10630 10626 10622 10617 10613 10608 10603 10599 10594 10589
10754 10755 10760 10765 10765 10766 10770 10762 10754 10758 10763 10762 10761 10761 10762 10761 10759 10758 10758 10758 10758 10758 10757 10756 10755 10753 10752 10751 10749 10748 10747 10745 10743 10741 10739 10737 10735 10733 10732 10730 10729 10728 10727 10725 10724 10722 10719 10717 10714 10712 10710 10708 10706 10704 10701 10699 10697 10694 10691 10689 10686 10684 10680 10676 10672 10668 10663 10659 10655 10651 10646 10642 10638 10633 10629 10624 10620 10616 10611 10606 10601 10596 10591 10586 10581
10749 10753 10759 10762 10760 10762 10765 10756 10749 10755 10758 10757 10758 10758 10758 10757 10755 10754 10753 10754 10753 10752 10752 10751 10749 10748 10746 10745 10743 10742 10741 10739 10738 10736 10734 10733 10731 10729 10728 10726 10725 10724 10722 10721 10719 10717 10714 10712 10709 10707 10705 10703 10701 10699 10696 10694 10691 10689 10686 10682 10679 10676 10673 10670 10667 10663 10658 10653 10649 10645 10640 10636 10631 10627 10622 10618 10613 10609 10604 10599 10594 10589 10584 10579 10574
10744 10750 10757 10759 10755 10755 10759 10752 10748 10752 10754 10753 10754 10754 10753 10752 10750 10749 10748 10748 10748 10746 10746 10745 10744 10743 10741 10739 10738 10737 10736 10735 10733 10731 10729 10728 10727 10725 10724 10722 10721 10719 10718 10716 10714 10712 10709 10707 10705 10703 10701 10699 10696 10694 10692 10689 10686 10683 10680 10676 10672 10669 10666 10662 10659 10656 10653 10648 10643 10638 10634 10630 10625 10620 10615 10610 10606 10601 10597 10592 10587 10582 10577 10572 10566
10740 10746 10752 10755 10751 10749 10751 10748 10746 10749 10749 10748 10749 10749 10748 10747 10746 10744 10742 10743 10743 10741 10740 10740 10740 10739 10737 10735 10734 10733 10731 10730 10728 10726 10725 10723 10722 10721 10719 10718 10716 10715 10713 10711 10709 10707 10704 10702 10700 10698 10696 10694 10692 10690 10687 10684 10681 10677 10674 10670 10666 10663 10659 10656 10652 10649 10646 10643 10638 10632 10627 10622 10617 10612 10607 10603 10598 10594 10589 10584 10579 10574 10569 10563 10558
10735 10741 10746 10748 10746 10743 10744 10743 10743 10744 10744 10744 10744 10743 10743 10743 10742 10739 10738 10738 10738 10736 10735 10736 10736 10735 10734 10732 10730 10728 10727 10725 10723 10721 10720 10719 10717 10716 10715 10714 10713 10711 10709 10706 10704 10702 10700 10698 10696 10694 10692 10690 10687 10685 10682 10679 10676 10672 10668 10664 10661 10657 10653 10650 10646 10642 10639 10635 10631 10626 10621 10616 10610 10605 10600 10596 10591 10586 10582 10577 10572 10567 10561 10556 10550
10730 10736 10740 10740 10739 10739 10739 10739 10738 10738 10739 10740 10739 10738 10738 10739 10737 10734 10734 10734 10732 10731 10730 10730 10731 10730 10729 10727 10726 10724 10722 10720 10719 10717 10716 10714 10713 10712 10711 10710 10708 10706 10704 10702 10699 10697 10695 10693 10691 10689 10687 10685 10682 10680 10677 10673 10670 10666 10663 10659 10655 10651 10648 10644 10640 10636 10632 10628 10624 10619 10614 10610 10605 10600 10595 10590 10584 10580 10575 10570 10565 10560 10554 10548 10543